| time (UTC) | temp F | wind direction | speed MPH | gust MPH | rain 1hr in | rain 24hr in | rain mn in | humidity % | barometer mb |
| 20260505114100 | 52 | 0 | 0.0 | 2.0 | 0.00 | 0.00 | 0.00 | 95 | 1014.7 |
| 20260505113556 | 52 | 0 | 0.0 | 1.0 | 0.00 | 0.00 | 0.00 | 95 | 1014.7 |
| 20260505113055 | 52 | 0 | 0.0 | 1.0 | 0.00 | 0.00 | 0.00 | 95 | 1014.9 |
| 20260505112557 | 52 | 0 | 0.0 | 1.0 | 0.00 | 0.00 | 0.00 | 95 | 1014.8 |
| 20260505112057 | 52 | 0 | 0.0 | 1.0 | 0.00 | 0.00 | 0.00 | 95 | 1014.9 |
| 20260505111556 | 52 | 0 | 0.0 | 1.0 | 0.00 | 0.00 | 0.00 | 94 | 1014.9 |
| 20260505111055 | 52 | 0 | 0.0 | 1.0 | 0.00 | 0.00 | 0.00 | 94 | 1014.8 |
| 20260505110556 | 52 | 0 | 0.0 | 1.0 | 0.00 | 0.00 | 0.00 | 93 | 1014.7 |
| 20260505102056 | 52 | 351 | 0.0 | 3.0 | 0.00 | 0.00 | 0.00 | 92 | 1014.6 |
| 20260505101557 | 53 | 360 | 0.0 | 2.0 | 0.00 | 0.00 | 0.00 | 92 | 1014.6 |
| 20260505101057 | 53 | 0 | 0.0 | 3.0 | 0.00 | 0.00 | 0.00 | 92 | 1014.5 |
| 20260505100557 | 53 | 351 | 0.0 | 3.0 | 0.00 | 0.00 | 0.00 | 91 | 1014.4 |
| 20260505100100 | 53 | 0 | 1.0 | 3.0 | 0.00 | 0.00 | 0.00 | 91 | 1014.4 |
| 20260505095558 | 53 | 0 | 0.0 | 2.0 | 0.00 | 0.00 | 0.00 | 91 | 1014.5 |
| 20260505095057 | 53 | 0 | 0.0 | 2.0 | 0.00 | 0.00 | 0.00 | 91 | 1014.4 |
| 20260505094559 | 53 | 345 | 0.0 | 1.0 | 0.00 | 0.00 | 0.00 | 91 | 1014.4 |
| 20260505094058 | 53 | 0 | 0.0 | 2.0 | 0.00 | 0.00 | 0.00 | 91 | 1014.3 |
| 20260505093558 | 53 | 0 | 0.0 | 2.0 | 0.00 | 0.00 | 0.00 | 91 | 1014.3 |
| 20260505093108 | 53 | 0 | 0.0 | 3.0 | 0.00 | 0.00 | 0.00 | 91 | 1014.2 |
| 20260505092558 | 53 | 0 | 0.0 | 3.0 | 0.00 | 0.00 | 0.00 | 91 | 1014.2 |
| 20260505092058 | 53 | 0 | 1.0 | 3.0 | 0.00 | 0.00 | 0.00 | 90 | 1014.1 |
| 20260505091606 | 53 | 5 | 0.0 | 2.0 | 0.00 | 0.00 | 0.00 | 90 | 1014.1 |
| 20260505091059 | 53 | 5 | 0.0 | 2.0 | 0.00 | 0.00 | 0.00 | 90 | 1014.1 |
| 20260505090557 | 53 | 0 | 0.0 | 3.0 | 0.00 | 0.00 | 0.00 | 90 | 1014.1 |
| 20260505085557 | 53 | 26 | 0.0 | 3.0 | 0.00 | 0.00 | 0.00 | 91 | 1014.0 |
| 20260505085057 | 53 | 0 | 0.0 | 0.0 | 0.00 | 0.00 | 0.00 | 91 | 1014.0 |
| 20260505084557 | 53 | 0 | 0.0 | 1.0 | 0.00 | 0.00 | 0.00 | 91 | 1014.0 |
| 20260505084059 | 53 | 0 | 0.0 | 2.0 | 0.00 | 0.00 | 0.00 | 91 | 1014.0 |
| 20260505083558 | 53 | 0 | 0.0 | 2.0 | 0.00 | 0.00 | 0.00 | 91 | 1014.0 |
| 20260505083100 | 53 | 0 | 0.0 | 2.0 | 0.00 | 0.00 | 0.00 | 91 | 1013.9 |
| 20260505082557 | 53 | 5 | 0.0 | 2.0 | 0.00 | 0.00 | 0.00 | 91 | 1013.9 |
| 20260505082058 | 53 | 0 | 0.0 | 2.0 | 0.00 | 0.00 | 0.00 | 91 | 1013.8 |
| 20260505081605 | 52 | 0 | 0.0 | 2.0 | 0.00 | 0.00 | 0.00 | 91 | 1013.8 |
| 20260505081057 | 52 | 0 | 0.0 | 0.0 | 0.00 | 0.00 | 0.00 | 91 | 1013.8 |
| 20260505080555 | 52 | 0 | 0.0 | 0.0 | 0.00 | 0.00 | 0.00 | 91 | 1013.9 |
| 20260505080057 | 52 | 0 | 0.0 | 0.0 | 0.00 | 0.00 | 0.00 | 91 | 1013.8 |
| 20260505075553 | 52 | 0 | 0.0 | 0.0 | 0.00 | 0.00 | 0.00 | 91 | 1013.8 |
| 20260505075053 | 52 | 0 | 0.0 | 0.0 | 0.00 | 0.00 | 0.00 | 91 | 1013.8 |
| 20260505074600 | 52 | 0 | 0.0 | 0.0 | 0.00 | 0.00 | 0.00 | 90 | 1013.8 |
| 20260505074057 | 52 | 0 | 0.0 | 1.0 | 0.00 | 0.00 | 0.00 | 90 | 1013.6 |
| 20260505073556 | 52 | 0 | 0.0 | 3.0 | 0.00 | 0.00 | 0.00 | 90 | 1013.6 |
| 20260505073105 | 53 | 0 | 0.0 | 3.0 | 0.00 | 0.00 | 0.00 | 90 | 1013.5 |
| 20260505072557 | 53 | 315 | 0.0 | 2.0 | 0.00 | 0.00 | 0.00 | 89 | 1013.4 |
| 20260505072057 | 53 | 315 | 0.0 | 4.0 | 0.00 | 0.00 | 0.00 | 89 | 1013.5 |
| 20260505071601 | 53 | 296 | 1.0 | 4.0 | 0.00 | 0.00 | 0.00 | 89 | 1013.4 |
| 20260505071057 | 53 | 320 | 1.0 | 3.0 | 0.00 | 0.00 | 0.00 | 89 | 1013.3 |
| 20260505070559 | 53 | 331 | 0.0 | 2.0 | 0.00 | 0.00 | 0.00 | 89 | 1013.3 |
| 20260505070058 | 53 | 331 | 0.0 | 2.0 | 0.00 | 0.00 | 0.00 | 88 | 1013.2 |
| 20260505065557 | 54 | 331 | 0.0 | 2.0 | 0.00 | 0.00 | 0.00 | 87 | 1013.3 |
| 20260505065054 | 54 | 0 | 0.0 | 5.0 | 0.00 | 0.00 | 0.00 | 87 | 1013.3 |
| 20260505064554 | 54 | 0 | 1.0 | 5.0 | 0.00 | 0.00 | 0.00 | 87 | 1013.1 |
| 20260505064054 | 55 | 0 | 1.0 | 4.0 | 0.00 | 0.00 | 0.00 | 87 | 1013.1 |
| 20260505063556 | 55 | 314 | 0.0 | 5.0 | 0.00 | 0.00 | 0.00 | 86 | 1013.1 |
| 20260505063056 | 55 | 315 | 1.0 | 5.0 | 0.00 | 0.00 | 0.00 | 86 | 1013.1 |
| 20260505062557 | 55 | 310 | 3.0 | 5.0 | 0.00 | 0.00 | 0.00 | 86 | 1013.0 |
| 20260505062057 | 55 | 324 | 1.0 | 4.0 | 0.00 | 0.00 | 0.00 | 86 | 1012.9 |
| 20260505061559 | 55 | 324 | 1.0 | 3.0 | 0.00 | 0.00 | 0.00 | 85 | 1012.9 |
| 20260505061054 | 55 | 0 | 1.0 | 3.0 | 0.00 | 0.00 | 0.00 | 85 | 1012.8 |
| 20260505060557 | 56 | 0 | 0.0 | 1.0 | 0.00 | 0.00 | 0.00 | 84 | 1012.8 |
| 20260505055557 | 56 | 0 | 0.0 | 2.0 | 0.00 | 0.00 | 0.00 | 83 | 1012.7 |
| 20260505055057 | 57 | 333 | 0.0 | 2.0 | 0.00 | 0.00 | 0.00 | 82 | 1012.6 |
| 20260505054625 | 57 | 0 | 0.0 | 2.0 | 0.00 | 0.00 | 0.00 | 82 | 1012.5 |
| 20260505054053 | 57 | 0 | 0.0 | 2.0 | 0.00 | 0.00 | 0.00 | 82 | 1012.5 |
| 20260505053556 | 57 | 0 | 0.0 | 1.0 | 0.00 | 0.00 | 0.00 | 81 | 1012.6 |
| 20260505053108 | 57 | 0 | 0.0 | 2.0 | 0.00 | 0.00 | 0.00 | 81 | 1012.5 |
| 20260505052556 | 58 | 0 | 0.0 | 3.0 | 0.00 | 0.00 | 0.00 | 80 | 1012.5 |
| 20260505052054 | 58 | 0 | 0.0 | 3.0 | 0.00 | 0.00 | 0.00 | 80 | 1012.4 |
| 20260505051556 | 58 | 0 | 1.0 | 3.0 | 0.00 | 0.00 | 0.00 | 79 | 1012.3 |
| 20260505051054 | 58 | 324 | 1.0 | 3.0 | 0.00 | 0.00 | 0.00 | 79 | 1012.3 |
| 20260505050558 | 58 | 0 | 0.0 | 2.0 | 0.00 | 0.00 | 0.00 | 77 | 1012.3 |
| 20260505050105 | 59 | 0 | 0.0 | 2.0 | 0.00 | 0.00 | 0.00 | 77 | 1012.2 |
| 20260505041601 | 62 | 342 | 0.0 | 5.0 | 0.00 | 0.00 | 0.00 | 69 | 1011.8 |
| 20260505041057 | 62 | 0 | 1.0 | 5.0 | 0.00 | 0.00 | 0.00 | 69 | 1011.7 |
| 20260505040557 | 62 | 336 | 1.0 | 4.0 | 0.00 | 0.00 | 0.00 | 68 | 1011.7 |
| 20260505035557 | 63 | 321 | 1.0 | 4.0 | 0.00 | 0.00 | 0.00 | 65 | 1011.6 |
| 20260505035058 | 63 | 0 | 0.0 | 3.0 | 0.00 | 0.00 | 0.00 | 63 | 1011.5 |
| 20260505034558 | 64 | 283 | 1.0 | 5.0 | 0.00 | 0.00 | 0.00 | 62 | 1011.4 |
| 20260505034057 | 65 | 284 | 1.0 | 7.0 | 0.00 | 0.00 | 0.00 | 60 | 1011.3 |
| 20260505033558 | 66 | 313 | 3.0 | 7.0 | 0.00 | 0.00 | 0.00 | 56 | 1011.3 |
| 20260505033057 | 66 | 331 | 3.0 | 6.0 | 0.00 | 0.00 | 0.00 | 56 | 1011.1 |
| 20260505032556 | 66 | 320 | 1.0 | 9.0 | 0.00 | 0.00 | 0.00 | 56 | 1011.1 |
| 20260505032056 | 67 | 320 | 3.0 | 9.0 | 0.00 | 0.00 | 0.00 | 56 | 1011.0 |
| 20260505031610 | 67 | 336 | 4.0 | 10.0 | 0.00 | 0.00 | 0.00 | 55 | 1010.9 |
| 20260505031057 | 68 | 290 | 4.0 | 10.0 | 0.00 | 0.00 | 0.00 | 55 | 1010.8 |
| 20260505030558 | 68 | 286 | 3.0 | 11.0 | 0.00 | 0.00 | 0.00 | 54 | 1010.8 |
| 20260505030059 | 68 | 311 | 5.0 | 11.0 | 0.00 | 0.00 | 0.00 | 53 | 1010.7 |
| 20260505025558 | 69 | 290 | 5.0 | 11.0 | 0.00 | 0.00 | 0.00 | 52 | 1010.7 |
| 20260505025057 | 69 | 360 | 7.0 | 11.0 | 0.00 | 0.00 | 0.00 | 52 | 1010.6 |
| 20260505024601 | 69 | 321 | 6.0 | 10.0 | 0.00 | 0.00 | 0.00 | 51 | 1010.6 |
| 20260505024101 | 70 | 295 | 6.0 | 10.0 | 0.00 | 0.00 | 0.00 | 50 | 1010.4 |
| 20260505023558 | 70 | 296 | 6.0 | 10.0 | 0.00 | 0.00 | 0.00 | 49 | 1010.4 |
| 20260505023121 | 70 | 296 | 6.0 | 11.0 | 0.00 | 0.00 | 0.00 | 48 | 1010.3 |
| 20260505022557 | 71 | 308 | 5.0 | 11.0 | 0.00 | 0.00 | 0.00 | 47 | 1010.3 |
| 20260505022057 | 71 | 316 | 5.0 | 11.0 | 0.00 | 0.00 | 0.00 | 46 | 1010.4 |
| 20260505021600 | 71 | 288 | 4.0 | 12.0 | 0.00 | 0.00 | 0.00 | 45 | 1010.3 |
| 20260505021056 | 71 | 288 | 7.0 | 13.0 | 0.00 | 0.00 | 0.00 | 44 | 1010.3 |
| 20260505020557 | 72 | 324 | 5.0 | 13.0 | 0.00 | 0.00 | 0.00 | 43 | 1010.3 |
| 20260505020057 | 72 | 318 | 7.0 | 16.0 | 0.00 | 0.00 | 0.00 | 42 | 1010.3 |
| 20260505015557 | 72 | 300 | 10.0 | 16.0 | 0.00 | 0.00 | 0.00 | 40 | 1010.3 |
| 20260505015058 | 73 | 336 | 8.0 | 17.0 | 0.00 | 0.00 | 0.00 | 39 | 1010.3 |
| 20260505014605 | 73 | 279 | 7.0 | 17.0 | 0.00 | 0.00 | 0.00 | 38 | 1010.3 |
| 20260505014057 | 74 | 290 | 8.0 | 15.0 | 0.00 | 0.00 | 0.00 | 36 | 1010.3 |
| 20260505013556 | 74 | 268 | 6.0 | 15.0 | 0.00 | 0.00 | 0.00 | 44 | 1010.4 |
| 20260505013109 | 74 | 268 | 8.0 | 14.0 | 0.00 | 0.00 | 0.00 | 45 | 1010.3 |
| 20260505012556 | 75 | 300 | 6.0 | 15.0 | 0.00 | 0.00 | 0.00 | 47 | 1010.3 |
| 20260505012056 | 75 | 288 | 8.0 | 15.0 | 0.00 | 0.00 | 0.00 | 48 | 1010.3 |
| 20260505011554 | 75 | 336 | 7.0 | 15.0 | 0.00 | 0.00 | 0.00 | 48 | 1010.3 |
| 20260505011057 | 75 | 329 | 8.0 | 15.0 | 0.00 | 0.00 | 0.00 | 49 | 1010.3 |
| 20260505010554 | 76 | 317 | 8.0 | 15.0 | 0.00 | 0.00 | 0.00 | 48 | 1010.3 |
| 20260505010100 | 76 | 311 | 8.0 | 14.0 | 0.00 | 0.00 | 0.00 | 48 | 1010.3 |
| 20260505005557 | 77 | 302 | 6.0 | 13.0 | 0.00 | 0.00 | 0.00 | 48 | 1010.2 |
| 20260505005058 | 77 | 275 | 4.0 | 15.0 | 0.00 | 0.00 | 0.00 | 49 | 1010.2 |
| 20260505004558 | 77 | 285 | 8.0 | 18.0 | 0.00 | 0.00 | 0.00 | 49 | 1010.2 |
| 20260505004058 | 77 | 289 | 4.0 | 18.0 | 0.00 | 0.00 | 0.00 | 50 | 1010.1 |
| 20260505003557 | 77 | 300 | 9.0 | 16.0 | 0.00 | 0.00 | 0.00 | 48 | 1010.1 |
| 20260505003055 | 78 | 286 | 4.0 | 10.0 | 0.00 | 0.00 | 0.00 | 48 | 1010.1 |
| 20260505002557 | 78 | 311 | 3.0 | 14.0 | 0.00 | 0.00 | 0.00 | 48 | 1010.0 |
| 20260505002057 | 78 | 275 | 5.0 | 14.0 | 0.00 | 0.00 | 0.00 | 47 | 1010.0 |
| 20260505001556 | 78 | 302 | 5.0 | 14.0 | 0.00 | 0.00 | 0.00 | 45 | 1010.0 |
| 20260505001054 | 78 | 294 | 7.0 | 13.0 | 0.00 | 0.00 | 0.00 | 43 | 1009.9 |
| 20260505000553 | 79 | 307 | 3.0 | 10.0 | 0.00 | 0.00 | 0.00 | 46 | 1009.9 |
| 20260505000115 | 79 | 252 | 4.0 | 10.0 | 0.00 | 0.00 | 0.00 | 46 | 1009.9 |
| 20260504235556 | 78 | 329 | 3.0 | 13.0 | 0.00 | 0.00 | 0.00 | 46 | 1009.9 |
| 20260504235054 | 78 | 306 | 8.0 | 13.0 | 0.00 | 0.00 | 0.00 | 45 | 1010.0 |
| 20260504234555 | 79 | 277 | 4.0 | 11.0 | 0.00 | 0.00 | 0.00 | 45 | 1010.0 |
| 20260504234057 | 78 | 272 | 4.0 | 11.0 | 0.00 | 0.00 | 0.00 | 49 | 1009.9 |
| 20260504233557 | 78 | 298 | 6.0 | 11.0 | 0.00 | 0.00 | 0.00 | 48 | 1009.9 |
| 20260504233057 | 78 | 321 | 6.0 | 11.0 | 0.00 | 0.00 | 0.00 | 50 | 1010.0 |
| 20260504232557 | 78 | 318 | 7.0 | 12.0 | 0.00 | 0.00 | 0.00 | 50 | 1010.0 |
| 20260504232058 | 78 | 257 | 4.0 | 12.0 | 0.00 | 0.00 | 0.00 | 52 | 1010.0 |
| 20260504231557 | 77 | 239 | 4.0 | 12.0 | 0.00 | 0.00 | 0.00 | 52 | 1010.1 |
| 20260504231053 | 77 | 265 | 6.0 | 12.0 | 0.00 | 0.00 | 0.00 | 53 | 1010.1 |
| 20260504230555 | 77 | 266 | 5.0 | 12.0 | 0.00 | 0.00 | 0.00 | 52 | 1010.3 |
| 20260504230106 | 77 | 294 | 4.0 | 12.0 | 0.00 | 0.00 | 0.00 | 52 | 1010.3 |
| 20260504225557 | 77 | 324 | 6.0 | 12.0 | 0.00 | 0.00 | 0.00 | 51 | 1010.6 |
| 20260504225056 | 77 | 266 | 5.0 | 11.0 | 0.00 | 0.00 | 0.00 | 54 | 1010.5 |
| 20260504224556 | 77 | 262 | 3.0 | 13.0 | 0.00 | 0.00 | 0.00 | 52 | 1010.5 |
| 20260504224057 | 76 | 312 | 5.0 | 13.0 | 0.00 | 0.00 | 0.00 | 52 | 1010.6 |
| 20260504223554 | 76 | 293 | 5.0 | 12.0 | 0.00 | 0.00 | 0.00 | 52 | 1010.6 |
| 20260504223105 | 76 | 315 | 5.0 | 14.0 | 0.00 | 0.00 | 0.00 | 51 | 1010.6 |
| 20260504222554 | 76 | 326 | 8.0 | 14.0 | 0.00 | 0.00 | 0.00 | 50 | 1010.6 |
| 20260504222058 | 77 | 315 | 3.0 | 14.0 | 0.00 | 0.00 | 0.00 | 50 | 1010.7 |
| 20260504221604 | 77 | 306 | 4.0 | 14.0 | 0.00 | 0.00 | 0.00 | 51 | 1010.7 |
| 20260504221057 | 77 | 305 | 5.0 | 14.0 | 0.00 | 0.00 | 0.00 | 51 | 1010.8 |
| 20260504220557 | 77 | 278 | 4.0 | 10.0 | 0.00 | 0.00 | 0.00 | 51 | 1010.8 |
| 20260504220101 | 77 | 290 | 2.0 | 10.0 | 0.00 | 0.00 | 0.00 | 52 | 1010.9 |
| 20260504215559 | 76 | 275 | 4.0 | 10.0 | 0.00 | 0.00 | 0.00 | 51 | 1011.0 |
| 20260504215057 | 76 | 252 | 2.0 | 9.0 | 0.00 | 0.00 | 0.00 | 52 | 1011.0 |
| 20260504214600 | 76 | 219 | 4.0 | 9.0 | 0.00 | 0.00 | 0.00 | 52 | 1011.0 |
| 20260504214053 | 76 | 323 | 3.0 | 11.0 | 0.00 | 0.00 | 0.00 | 52 | 1011.1 |
| 20260504213557 | 75 | 248 | 5.0 | 11.0 | 0.00 | 0.00 | 0.00 | 53 | 1011.2 |
| 20260504213106 | 75 | 281 | 4.0 | 12.0 | 0.00 | 0.00 | 0.00 | 53 | 1011.2 |
| 20260504212553 | 75 | 246 | 2.0 | 12.0 | 0.00 | 0.00 | 0.00 | 53 | 1011.2 |
| 20260504212100 | 74 | 250 | 3.0 | 11.0 | 0.00 | 0.00 | 0.00 | 53 | 1011.3 |
| 20260504211605 | 74 | 293 | 5.0 | 12.0 | 0.00 | 0.00 | 0.00 | 54 | 1011.3 |
| 20260504211057 | 75 | 323 | 6.0 | 12.0 | 0.00 | 0.00 | 0.00 | 52 | 1011.4 |
| 20260504210557 | 75 | 316 | 2.0 | 9.0 | 0.00 | 0.00 | 0.00 | 54 | 1011.4 |
| 20260504210057 | 74 | 311 | 3.0 | 10.0 | 0.00 | 0.00 | 0.00 | 54 | 1011.4 |
| 20260504205557 | 73 | 292 | 3.0 | 11.0 | 0.00 | 0.00 | 0.00 | 53 | 1011.4 |
| 20260504205057 | 73 | 341 | 4.0 | 12.0 | 0.00 | 0.00 | 0.00 | 52 | 1011.4 |
| 20260504204602 | 73 | 326 | 6.0 | 12.0 | 0.00 | 0.00 | 0.00 | 53 | 1011.5 |
| 20260504204056 | 73 | 313 | 5.0 | 12.0 | 0.00 | 0.00 | 0.00 | 54 | 1011.6 |
| 20260504203600 | 73 | 317 | 6.0 | 12.0 | 0.00 | 0.00 | 0.00 | 55 | 1011.7 |
| 20260504203109 | 73 | 317 | 3.0 | 10.0 | 0.00 | 0.00 | 0.00 | 55 | 1011.7 |
| 20260504202557 | 73 | 47 | 4.0 | 11.0 | 0.00 | 0.00 | 0.00 | 55 | 1011.7 |
| 20260504202054 | 72 | 334 | 5.0 | 11.0 | 0.00 | 0.00 | 0.00 | 56 | 1011.7 |
| 20260504201559 | 72 | 218 | 2.0 | 8.0 | 0.00 | 0.00 | 0.00 | 58 | 1011.7 |
| 20260504201057 | 72 | 313 | 4.0 | 9.0 | 0.00 | 0.00 | 0.00 | 56 | 1011.7 |
| 20260504200553 | 72 | 293 | 5.0 | 9.0 | 0.00 | 0.00 | 0.00 | 56 | 1011.8 |
| 20260504200057 | 72 | 360 | 4.0 | 11.0 | 0.00 | 0.00 | 0.00 | 57 | 1011.9 |
| 20260504195555 | 71 | 308 | 2.0 | 11.0 | 0.00 | 0.00 | 0.00 | 58 | 1011.9 |
| 20260504195057 | 71 | 290 | 4.0 | 12.0 | 0.00 | 0.00 | 0.00 | 60 | 1012.0 |
| 20260504194555 | 71 | 313 | 3.0 | 12.0 | 0.00 | 0.00 | 0.00 | 59 | 1012.0 |
| 20260504194057 | 70 | 298 | 6.0 | 12.0 | 0.00 | 0.00 | 0.00 | 61 | 1012.0 |
| 20260504193554 | 70 | 315 | 4.0 | 10.0 | 0.00 | 0.00 | 0.00 | 61 | 1012.0 |
| 20260504193056 | 70 | 306 | 5.0 | 10.0 | 0.00 | 0.00 | 0.00 | 63 | 1012.1 |
| 20260504192556 | 69 | 303 | 5.0 | 10.0 | 0.00 | 0.00 | 0.00 | 61 | 1012.2 |
| 20260504192057 | 69 | 289 | 5.0 | 10.0 | 0.00 | 0.00 | 0.00 | 64 | 1012.2 |
| 20260504191605 | 69 | 292 | 4.0 | 10.0 | 0.00 | 0.00 | 0.00 | 64 | 1012.2 |
| 20260504191054 | 69 | 5 | 3.0 | 10.0 | 0.00 | 0.00 | 0.00 | 66 | 1012.3 |
| 20260504190557 | 68 | 309 | 5.0 | 10.0 | 0.00 | 0.00 | 0.00 | 67 | 1012.2 |
| 20260504190117 | 68 | 293 | 5.0 | 11.0 | 0.00 | 0.00 | 0.00 | 67 | 1012.3 |
| 20260504185554 | 68 | 275 | 4.0 | 11.0 | 0.00 | 0.00 | 0.00 | 66 | 1012.3 |
| 20260504185053 | 68 | 310 | 4.0 | 9.0 | 0.00 | 0.00 | 0.00 | 69 | 1012.4 |
| 20260504184558 | 68 | 301 | 4.0 | 10.0 | 0.00 | 0.00 | 0.00 | 67 | 1012.4 |
| 20260504184053 | 68 | 281 | 4.0 | 10.0 | 0.00 | 0.00 | 0.00 | 68 | 1012.4 |
| 20260504183557 | 67 | 0 | 5.0 | 11.0 | 0.00 | 0.00 | 0.00 | 68 | 1012.5 |
| 20260504183102 | 66 | 16 | 5.0 | 11.0 | 0.00 | 0.00 | 0.00 | 71 | 1012.5 |
| 20260504182557 | 66 | 295 | 6.0 | 10.0 | 0.00 | 0.00 | 0.00 | 69 | 1012.5 |
| 20260504182101 | 66 | 302 | 4.0 | 9.0 | 0.00 | 0.00 | 0.00 | 69 | 1012.5 |
| 20260504181600 | 66 | 294 | 4.0 | 11.0 | 0.00 | 0.00 | 0.00 | 69 | 1012.5 |
| 20260504181057 | 66 | 296 | 4.0 | 11.0 | 0.00 | 0.00 | 0.00 | 71 | 1012.5 |
| 20260504180557 | 65 | 277 | 6.0 | 11.0 | 0.00 | 0.00 | 0.00 | 71 | 1012.4 |
| 20260504180111 | 65 | 296 | 5.0 | 11.0 | 0.00 | 0.00 | 0.00 | 71 | 1012.5 |
| 20260504175559 | 65 | 281 | 6.0 | 11.0 | 0.00 | 0.00 | 0.00 | 71 | 1012.5 |
| 20260504175055 | 65 | 290 | 3.0 | 10.0 | 0.00 | 0.00 | 0.00 | 71 | 1012.6 |
| 20260504174557 | 65 | 311 | 4.0 | 9.0 | 0.00 | 0.00 | 0.00 | 71 | 1012.5 |
| 20260504174057 | 65 | 275 | 4.0 | 9.0 | 0.00 | 0.00 | 0.00 | 71 | 1012.5 |
| 20260504173554 | 65 | 295 | 4.0 | 10.0 | 0.00 | 0.00 | 0.00 | 70 | 1012.5 |
| 20260504173055 | 64 | 299 | 3.0 | 10.0 | 0.00 | 0.00 | 0.00 | 71 | 1012.5 |
| 20260504172553 | 64 | 265 | 3.0 | 9.0 | 0.00 | 0.00 | 0.00 | 71 | 1012.5 |
| 20260504172054 | 64 | 296 | 4.0 | 9.0 | 0.00 | 0.00 | 0.00 | 70 | 1012.4 |
| 20260504171558 | 64 | 309 | 5.0 | 9.0 | 0.00 | 0.00 | 0.00 | 68 | 1012.4 |
| 20260504171059 | 64 | 301 | 4.0 | 9.0 | 0.00 | 0.00 | 0.00 | 69 | 1012.4 |
| 20260504170557 | 64 | 267 | 4.0 | 10.0 | 0.00 | 0.00 | 0.00 | 70 | 1012.5 |
| 20260504160104 | 63 | 20 | 0.0 | 2.0 | 0.00 | 0.00 | 0.00 | 72 | 1012.1 |
| 20260504151055 | 57 | 340 | 0.0 | 3.0 | 0.00 | 0.00 | 0.00 | 85 | 1012.0 |
| 20260504150554 | 56 | 0 | 1.0 | 3.0 | 0.00 | 0.00 | 0.00 | 87 | 1012.0 |
| 20260504141056 | 50 | 0 | 0.0 | 0.0 | 0.00 | 0.00 | 0.00 | 91 | 1011.1 |
| 20260504140555 | 50 | 0 | 0.0 | 0.0 | 0.00 | 0.00 | 0.00 | 91 | 1011.1 |
| 20260504140104 | 50 | 0 | 0.0 | 0.0 | 0.00 | 0.00 | 0.00 | 91 | 1011.1 |
| 20260504130557 | 51 | 0 | 0.0 | 0.0 | 0.00 | 0.00 | 0.00 | 88 | 1010.3 |